Location: Hamburg
(53.5500°N, 10.0000°E)
Time: 15:26:23
(UTC+02:00)

A-11 Canister half - All Passes

Search period start: 25 May 2015 00:00
Search period end: 04 June 2015 00:00
Orbit: 1528 x 1682 km, 47.3° (Epoch: 23 May)

Date Brightness Start Highest point End Pass type
(mag) Time Alt. Az. Time Alt. Az. Time Alt. Az.
25 May - 01:33:38 10° SSW 01:41:36 34° SE 01:49:51 10° E visible
25 May - 03:36:15 10° WSW 03:45:22 57° SSE 03:54:47 10° E visible
25 May - 05:40:25 10° W 05:49:40 58° SSW 05:59:13 10° ESE daylight
25 May - 07:45:06 10° W 07:53:35 35° SW 08:02:10 10° SSE daylight
25 May - 09:52:51 10° WSW 09:56:32 12° SW 09:59:39 10° SW daylight
26 May - 01:12:17 10° SSW 01:20:07 32° SE 01:28:15 10° E visible
26 May - 03:14:46 10° WSW 03:23:51 56° SSE 03:33:14 10° E visible
26 May - 05:18:53 10° W 05:28:08 58° S 05:37:41 10° ESE daylight
26 May - 07:23:34 10° W 07:32:06 36° SSW 07:40:45 10° SSE daylight
26 May - 09:30:52 10° W 09:35:04 13° SW 09:38:46 10° SSW daylight
27 May - 00:50:55 10° SSW 00:58:39 31° SE 01:06:40 10° E visible
27 May - 02:53:17 10° WSW 03:02:20 55° SSE 03:11:40 10° E visible
27 May - 04:57:23 10° W 05:06:37 59° S 05:16:09 10° ESE daylight
27 May - 07:02:01 10° W 07:10:35 38° SSW 07:19:18 10° SSE daylight
27 May - 09:09:00 10° W 09:13:37 14° SW 09:17:46 10° SSW daylight
28 May - 00:29:35 10° SSW 00:37:11 30° SE 00:45:04 10° E visible
28 May - 02:31:49 10° WSW 02:40:49 55° SSE 02:50:06 10° E visible
28 May - 04:35:52 10° W 04:45:05 59° S 04:54:36 10° ESE daylight
28 May - 06:40:28 10° W 06:49:05 39° SSW 06:57:51 10° SSE daylight
28 May - 08:47:10 10° W 08:52:09 15° SW 08:56:44 10° SSW daylight
29 May - 00:08:15 10° SSW 00:15:43 29° SE 00:23:28 10° E visible
29 May - 02:10:20 10° SW 02:19:18 54° SSE 02:28:32 10° E visible
29 May - 04:14:21 10° W 04:23:34 60° S 04:33:03 10° ESE visible
29 May - 06:18:56 10° W 06:27:34 40° SSW 06:36:23 10° SSE daylight
29 May - 08:25:23 10° W 08:30:42 16° SW 08:35:38 10° SSW daylight
29 May - 23:46:56 10° SSW 23:54:15 28° SE 00:01:52 10° E visible
30 May - 01:48:52 10° SW 01:57:48 53° SSE 02:06:59 10° E visible
30 May - 03:52:51 10° W 04:02:02 60° S 04:11:30 10° ESE visible
30 May - 05:57:24 10° W 06:06:05 41° SSW 06:14:56 10° SE daylight
30 May - 08:03:38 10° W 08:09:15 16° SW 08:14:30 10° SSW daylight
30 May - 23:25:36 10° S 23:32:47 27° SE 23:40:15 10° E visible
31 May - 01:27:24 10° SW 01:36:18 52° SSE 01:45:26 10° E visible
31 May - 03:31:21 10° W 03:40:31 60° S 03:49:58 10° ESE visible
31 May - 05:35:52 10° W 05:44:35 42° SSW 05:53:29 10° SE daylight
31 May - 07:41:55 10° W 07:47:47 17° SW 07:53:20 10° SSW daylight
31 May - 23:04:18 10° S 23:11:20 26° SE 23:18:38 10° E visible
01 Jun - 01:05:57 10° SW 01:14:47 51° SSE 01:23:52 10° E visible
01 Jun - 03:09:50 10° W 03:18:59 60° S 03:28:26 10° ESE visible
01 Jun - 05:14:20 10° W 05:23:04 43° SSW 05:32:01 10° SE daylight
01 Jun - 07:20:14 10° W 07:26:19 18° SW 07:32:09 10° S daylight
01 Jun - 22:43:01 10° S 22:49:52 24° SE 22:57:01 10° E visible
02 Jun - 00:44:29 10° SW 00:53:17 50° SSE 01:02:19 10° E visible
02 Jun - 02:48:19 10° W 02:57:29 61° S 03:06:53 10° ESE visible
02 Jun - 04:52:48 10° W 05:01:35 44° SSW 05:10:32 10° SE daylight
02 Jun - 06:58:33 10° W 07:04:51 19° SW 07:10:56 10° S daylight
02 Jun - 22:21:44 10° S 22:28:25 23° SE 22:35:23 10° E visible
03 Jun - 00:23:02 10° SW 00:31:48 49° SSE 00:40:46 10° E visible
03 Jun - 02:26:49 10° WSW 02:35:57 61° S 02:45:20 10° ESE visible
03 Jun - 04:31:17 10° W 04:40:04 45° SSW 04:49:03 10° SE daylight
03 Jun - 06:36:54 10° W 06:43:23 20° SW 06:49:41 10° S daylight
03 Jun - 22:00:28 10° S 22:06:58 22° SE 22:13:45 10° E daylight
